Location: Ferintosh
(52.7647°N, 112.9692°W)
Time: 02:21:06
(UTC+00:00)

S-56A Canister/Altair - Pass Details

Date: 29 May 2024
Orbit: 637 x 2488 km, 38.9° (Epoch: 23 June)

Event Time Altitude Azimuth Distance (km) Brightness Sun altitude
Rises 17:17:04 0° 272° (W) 5,405 11.5 50.0°
Reaches altitude 10° 17:22:32 10° 256° (WSW) 4,021 11.1 50.7°
Maximum altitude 17:28:15 17° 222° (SW) 3,059 10.8 51.3°
Drops below altitude 10° 17:32:56 10° 185° (S) 3,160 11.2 51.8°
Sets 17:36:29 0° 165° (SSE) 3,811 11.6 52.2°
